Location: Homer
(59.6430°N, 151.5480°W)
Time: 02:46:52
(UTC-08:00)

Daily predictions for brighter satellites

Satellite Brightness Start Highest point End
(mag) Time Altitude Azimuth Time Altitude Azimuth Time Altitude Azimuth
COSMOS 2487 3.8 00:01:48 10° SSE 00:04:46 25° ESE 00:07:46 10° NE
NOSS 2-2 (D) 3.8 00:03:20 10° SW 00:07:37 61° SE 00:13:00 10° ENE
Lacrosse 5 rocket 1.7 00:04:22 10° W 00:08:56 63° S 00:13:32 10° ESE
Cosmos 2181 Rocket 4.1 00:02:57 10° S 00:09:18 81° E 00:15:38 10° NNE
SME Rocket 3.6 00:04:32 10° SE 00:09:29 56° ENE 00:13:20 10° NNW
Aureole 1 Rocket 2.2 00:07:06 10° SW 00:10:11 81° WNW 00:13:13 10° NNE
SL-16 R/B 2.8 00:04:51 10° NW 00:10:28 55° NE 00:16:03 10° ESE
Cosmos 1697 Rocket 2.9 00:05:54 10° NW 00:11:29 64° WSW 00:17:02 10° SSE
USA 229 DEB 3.9 00:05:32 10° WNW 00:12:33 70° SW 00:19:42 10° SE
USA 229 3.9 00:05:38 10° WNW 00:12:39 70° SW 00:19:49 10° SE
CZ-4B R/B 4.0 00:09:33 10° NNE 00:14:18 43° E 00:19:09 10° S
Cosmos 1766 3.3 00:11:56 10° NNW 00:15:54 81° ENE 00:19:49 10° SSE
CARTOSAT-1 4.3 00:12:10 10° S 00:16:22 48° W 00:20:34 10° NNW
ATLAS 2AS CENTAUR R/B 3.6 00:10:43 10° W 00:18:52 67° N 00:26:53 10° E
NOSS 3-1 (A) 4.0 00:12:12 10° WNW 00:19:10 84° NNE 00:27:09 10° ESE
NOSS 3-4 (A) 3.9 00:12:46 10° WSW 00:19:14 76° NNW 00:26:09 10° ENE
NOSS 3-4 (C) 3.9 00:12:53 10° WSW 00:19:22 77° NNW 00:26:15 10° ENE
Cosmos 1758 3.9 00:16:24 10° N 00:20:19 47° ENE 00:24:12 10° SE
Cosmos 1025 Rocket 4.0 00:17:17 10° SW 00:21:25 47° WNW 00:25:35 10° N
Cosmos 1420 Rocket 4.3 00:16:13 10° NW 00:21:29 66° WSW 00:26:41 10° SSE
SL-19 R/B 4.3 00:16:38 10° NNE 00:22:11 64° ESE 00:27:27 10° S
RESURS DK-1 4.0 00:19:41 10° WSW 00:23:38 41° NW 00:27:36 10° NE
USA 129 0.3 00:25:13 10° N 00:26:13 48° WNW 00:26:36 22° SW
NOSS 2-2 (C) 3.8 00:21:59 10° SW 00:26:22 74° SE 00:31:56 10° ENE
USA 234 3.4 00:22:36 10° SE 00:29:01 56° SSW 00:35:28 10° W
ISS -1.7 00:29:57 10° SSE 00:30:25 11° SSE 00:31:10 10° SE
Cosmos 1452 Rocket 4.3 00:26:30 10° NW 00:31:29 44° WSW 00:36:27 10° S
Cosmos 1821 Rocket 4.3 00:26:27 10° N 00:32:37 61° ENE 00:38:51 10° SSE
Cosmos 1812 Rocket 3.7 00:28:17 10° NNW 00:32:48 76° W 00:37:16 10° S
Cosmos 1110 Rocket 4.3 00:27:46 10° NNW 00:33:05 69° NE 00:38:20 10° SE
Cosmos 1470 3.9 00:29:56 10° N 00:33:39 36° ENE 00:37:22 10° SE
Cosmos 1515 4.3 00:30:28 10° SSW 00:34:13 57° WNW 00:38:00 10° N
Meteor 1-4 Rocket 3.6 00:31:12 10° NNW 00:34:41 40° W 00:38:05 10° SSW
Cosmos 1331 Rocket 4.3 00:29:47 10° NNW 00:35:00 65° NE 00:40:08 10° SE
Terra 2.9 00:30:42 10° SSW 00:35:08 38° W 00:39:37 10° NNW
Cosmos 2098 Rocket 4.5 00:32:36 10° N 00:35:43 26° ENE 00:39:26 10° ESE
Cosmos 1833 Rocket 3.3 00:34:05 10° S 00:39:12 38° ESE 00:44:23 10° NE
Spot 4 4.4 00:35:19 10° S 00:40:01 54° WSW 00:44:47 10° NNW
Cosmos 1066 Rocket 4.2 00:35:27 10° S 00:40:58 82° ESE 00:46:41 10° NNE
H-2A R/B 3.6 00:37:44 10° SSW 00:41:49 32° W 00:45:55 10° NNW
COSMOS 2428 4.3 00:37:09 10° NW 00:42:28 36° NNE 00:47:46 10° E
Cosmos 1805 3.3 00:49:43 10° NNW 00:53:40 77° WSW 00:57:21 11° S
Cosmos 1626 Rocket 3.5 00:49:44 10° S 00:54:04 87° E 00:58:26 10° NNE
CZ-4C R/B 4.1 00:52:43 10° S 00:56:02 38° W 00:59:29 10° NNW
Cosmos 2360 Rocket 2.9 00:51:05 10° NW 00:56:41 53° NE 01:02:14 10° ESE
ALOS 2 2.8 00:52:32 10° SSE 00:56:49 72° ENE 01:01:13 10° NNW
Cosmos 1980 Rocket 2.7 00:52:22 10° NW 00:57:52 51° WSW 01:03:06 11° S
CZ-4C R/B 4.3 00:58:11 10° SE 01:01:39 37° ENE 01:05:05 10° N
Cosmos 1953 Rocket 4.5 00:59:23 11° SSE 01:03:18 37° E 01:07:25 10° NNE
Cosmos 2322 Rocket 2.3 01:00:14 10° NW 01:05:59 87° SW 01:11:43 10° SE
Cosmos 1825 Rocket 4.0 01:03:27 12° SSE 01:07:20 49° E 01:11:31 10° NNE
CZ-4 R/B 4.2 01:04:06 10° NNE 01:09:07 76° WNW 01:14:07 10° SSW
Cosmos 1818 4.1 01:07:13 10° WSW 01:12:40 64° NNW 01:18:07 10° ENE
H-2A R/B 4.3 01:10:31 10° WSW 01:13:23 15° W 01:16:18 10° NW
Aureole 2 4.4 01:10:18 10° NW 01:13:34 78° WSW 01:16:58 12° SSE
Cosmos 1544 3.9 01:10:57 10° NNW 01:14:25 43° W 01:17:44 11° SSW
deb Chang Zheng 4 4.3 01:10:43 10° NNE 01:14:57 54° WNW 01:19:10 10° SW
NOSS 2-2 (E) 4.3 01:10:42 10° WSW 01:15:21 76° NNW 01:21:25 10° ENE
Cosmos 2333 Rocket 3.9 01:10:35 10° NW 01:15:53 35° NNE 01:21:07 10° E
Cosmos 1953 2.6 01:14:25 10° NNW 01:18:28 63° W 01:22:08 12° S
Timation 2 Rocket 4.3 01:13:49 10° S 01:19:48 47° ESE 01:25:36 10° NE
CZ-4B R/B 2.6 01:18:28 10° SE 01:21:18 32° ENE 01:24:11 10° N
Cosmos 389 Rocket 2.8 01:18:38 10° NNW 01:22:06 56° W 01:25:04 13° S
Cosmos 1689 Rocket 3.7 01:20:11 10° SE 01:22:59 31° ENE 01:25:49 10° N
COSMOS 2406 4.4 01:18:21 10° WSW 01:23:51 46° NW 01:29:22 10° NE
Cosmos 967 Rocket 4.5 01:20:24 10° SW 01:26:38 74° SE 01:32:58 10° NE
Cosmos 1602 Rocket 4.1 01:23:04 10° SSW 01:27:20 54° WNW 01:31:37 10° N
Cosmos 1842 3.3 01:25:03 11° SSW 01:28:53 83° WNW 01:32:52 10° NNE
CZ-2C R/B 3.4 01:26:00 12° S 01:31:04 69° WSW 01:36:48 10° NNW
USA 267 3.8 01:26:15 10° ENE 01:32:16 38° SE 01:38:16 10° SSW
SeaSat 1 3.5 01:29:04 12° S 01:33:14 34° WSW 01:37:44 10° NW
Cosmos 1271 Rocket 4.3 01:31:41 10° NW 01:34:56 26° W 01:38:13 10° SSW
ATLAS CENTAUR R/B 1.5 01:33:39 10° WNW 01:37:16 46° SW 01:40:29 12° SSE
Cosmos 2082 Rocket 2.2 01:31:39 10° SSW 01:37:20 80° SE 01:43:01 10° NE
NOSS 3-1 (C) 4.2 01:32:29 10° WNW 01:39:25 55° SW 01:47:15 10° SSE
COSMOS 2487 3.3 01:36:32 10° SW 01:40:02 51° NW 01:43:34 10° NNE
Cosmos 972 Rocket 4.4 01:35:47 10° NNW 01:41:17 56° WSW 01:45:49 13° S
Cosmos 2219 Rocket 3.4 01:37:31 10° NW 01:42:57 44° NNE 01:48:24 10° ESE
Cosmos-2242 3.1 01:38:57 10° NNW 01:43:18 73° W 01:47:05 13° S
CZ-2C R/B 2.9 01:38:40 10° NNE 01:44:19 67° ESE 01:49:32 12° S
H-2A R/B 4.5 01:43:46 10° NE 01:46:39 18° E 01:49:35 10° SE
Lacrosse 5 rocket 2.1 01:43:32 10° W 01:47:53 40° SSW 01:52:13 10° SE
Cosmos 1934 Rocket 4.3 01:42:38 10° NNW 01:48:59 66° W 01:54:53 12° S
Cosmos 2100 Rocket 4.4 01:46:17 10° N 01:52:22 58° ENE 01:58:27 10° SSE
SL-16 R/B 4.3 01:47:24 10° NW 01:52:25 30° NNE 01:57:26 10° ENE
CZ-4B R/B 4.4 01:48:22 10° NNE 01:53:05 46° WNW 01:57:56 10° SW
SL-16 R/B 2.6 01:49:10 10° NW 01:54:39 50° WSW 01:59:41 12° S
Cosmos 2237 Rocket 3.7 01:49:54 10° NW 01:55:13 38° NNE 02:00:29 10° E
Cosmos 1269 Rocket 4.0 01:50:06 10° SSW 01:55:24 79° ESE 02:00:45 10° NNE
Cosmos 1733 3.9 01:53:38 10° NNW 01:57:17 44° W 02:00:28 13° SSW
Meteor 2-5 Rocket 4.3 01:55:19 12° S 02:00:41 54° E 02:06:28 10° NNE
Cosmos 158 Rocket 4.1 01:59:07 10° SSW 02:04:28 86° ESE 02:09:55 10° NNE
Cosmos 2221 3.3 02:00:19 10° N 02:04:30 48° ENE 02:08:40 10° SE
ISS -2.4 02:03:35 10° SW 02:06:02 19° S 02:08:29 10° ESE
Cosmos 1842 Rocket 3.6 02:04:10 10° NNW 02:08:41 84° W 02:12:46 13° S
Nadezhda 3 Rocket 4.5 02:02:40 10° SSW 02:08:59 60° WNW 02:15:19 10° N
Cosmos 1470 3.8 02:06:07 10° NNW 02:09:48 36° W 02:13:07 12° SSW
NOSS 3-1 (A) 4.3 02:03:06 10° WNW 02:10:02 50° SW 02:17:46 10° SSE
ATLAS 2AS CENTAUR R/B 3.2 02:02:18 10° WNW 02:10:33 89° NNE 02:18:26 10° ESE
NOSS 3-4 (A) 4.2 02:04:13 10° WNW 02:10:47 65° N 02:17:49 10° E
NOSS 3-4 (C) 4.2 02:04:20 10° WNW 02:10:54 65° N 02:17:55 10° E
USA 234 4.1 02:07:34 10° SSE 02:13:01 29° SW 02:18:36 10° WNW
SAR-Lupe-2 3.9 02:10:05 14° S 02:13:02 55° WSW 02:16:36 10° NNW
Cosmos 1726 4.4 02:10:37 10° N 02:13:36 21° ENE 02:16:34 10° ESE
Cosmos 2237 4.3 02:08:19 10° NW 02:14:04 87° NE 02:19:47 10° SE
Cosmos 1758 Rocket 3.8 02:10:41 11° SSW 02:14:49 65° WNW 02:19:12 10° N
Cosmos 2322 3.7 02:09:29 10° NW 02:15:10 78° SW 02:20:50 10° SSE
Cosmos 1048 Rocket 4.1 02:11:41 10° SW 02:16:50 79° NW 02:22:05 10° NNE
Cosmos 2098 Rocket 3.4 02:13:41 10° NNW 02:17:18 51° W 02:21:16 13° S
Lacrosse 5 3.9 02:16:18 10° SSE 02:18:09 12° SE 02:20:01 10° ESE
Cosmos 1833 Rocket 3.1 02:17:18 10° SW 02:22:55 67° NW 02:28:36 10° NE
Cosmos 1242 Rocket 4.2 02:24:13 10° N 02:27:22 29° ENE 02:30:31 10° SE
COSMOS 2428 2.8 02:21:40 10° NW 02:27:28 85° NE 02:33:15 10° SE
Landsat 5 3.9 02:24:43 13° S 02:28:45 62° WSW 02:33:17 10° NNW
Cosmos 1908 3.9 02:26:57 10° N 02:30:50 55° ENE 02:34:42 10° SSE
ALOS 2 4.3 02:30:08 10° SW 02:33:37 23° W 02:37:08 10° NW
CZ-4C R/B 4.2 02:31:41 13° SSW 02:34:40 34° W 02:38:05 10° NNW
Cosmos 2251 Rocket 3.8 02:30:41 12° SSW 02:35:35 62° ESE 02:40:55 10° NE
Cosmos 1992 Rocket 4.0 02:32:30 10° NNW 02:37:46 77° WSW 02:42:58 10° SSE
Cosmos 1727 Rocket 4.1 02:31:59 12° S 02:37:50 85° E 02:44:09 10° NNE
Cosmos 2333 4.3 02:33:24 10° NW 02:39:13 90° NE 02:44:59 10° SE
Cosmos 1707 2.9 02:36:07 12° SSW 02:39:37 66° WNW 02:43:30 10° N
Meteor 2-17 Rocket 4.5 02:34:03 10° NNW 02:40:11 87° WSW 02:46:18 10° S
Cosmos 1980 Rocket 4.2 02:38:07 10° WNW 02:40:38 13° W 02:43:09 10° WSW
Cosmos 2360 Rocket 2.5 02:35:16 10° NW 02:40:47 52° WSW 02:46:15 10° SSE
Cosmos 1378 3.2 02:41:06 13° SSW 02:44:25 77° WNW 02:48:11 10° NNE
PSLV R/B 4.4 02:41:42 10° SSE 02:45:42 60° ENE 02:49:43 10° NNW
Cosmos 2322 Rocket 3.5 02:44:51 10° NW 02:49:25 25° WSW 02:53:47 11° SSW
Cosmos 1725 Rocket 4.3 02:43:37 10° NNW 02:49:58 70° ENE 02:56:17 10° SSE
CZ-4B R/B 2.5 02:51:44 13° SSW 02:54:03 27° W 02:56:49 10° NW
Okean 3 Rocket 4.3 02:49:57 10° S 02:54:19 50° E 02:58:45 10° NNE
Cosmos 1689 Rocket 3.5 02:52:38 13° SSW 02:54:58 28° W 02:57:46 10° NW
Meteor 1-24 Rocket 4.0 02:50:40 11° S 02:56:23 80° ESE 03:02:28 10° NNE
SL-08 R/B 4.2 02:51:40 10° SE 02:56:28 53° ENE 03:01:18 10° NNW
Cosmos 2173 Rocket 4.1 02:54:03 10° NNW 03:00:10 67° W 03:06:12 10° S
Cosmos 1184 Rocket 4.2 02:57:45 10° SSE 03:00:42 30° E 03:03:40 10° NNE
Cosmos 2333 Rocket 2.4 02:55:08 10° NW 03:00:56 80° NE 03:06:40 10° SE
Resurs 1-4 Rocket 4.5 02:57:58 10° NE 03:00:58 15° E 03:03:58 10° ESE
CZ-2D R/B 4.4 03:02:41 10° NE 03:05:44 15° E 03:08:46 10° ESE
Timation 2 Rocket 4.4 03:01:00 10° WSW 03:07:13 63° NW 03:13:15 10° NE
Geosat 4.1 03:10:20 10° NE 03:15:25 89° NW 03:20:28 10° SW
USA 267 3.3 03:09:33 10° E 03:16:05 65° SSE 03:22:34 10° WSW
Cosmos 1980 3.9 03:14:05 10° NW 03:19:49 83° NE 03:25:32 10° SE
Aureole 2 Rocket 3.5 03:16:24 10° NNW 03:20:06 53° NE 03:24:02 10° SE
Cosmos 1340 Rocket 3.2 03:17:24 10° S 03:21:15 57° E 03:25:09 10° NNE
Cosmos 2082 Rocket 3.5 03:16:37 10° W 03:21:57 40° NNW 03:27:17 10° NE
Cosmos 1408 Rocket 4.4 03:17:52 10° SSE 03:22:03 45° E 03:26:13 10° NNE
H-2A R/B 2.5 03:18:36 10° NNE 03:22:44 85° WNW 03:26:58 10° SSW
CZ-2C R/B 4.0 03:19:16 10° N 03:24:21 36° NW 03:29:25 10° WSW
Cosmos 1766 Rocket 4.2 03:21:15 10° S 03:25:31 50° E 03:29:45 10° NNE
Lacrosse 5 rocket 3.2 03:23:29 10° W 03:26:17 16° SW 03:29:03 10° S
Cosmos 1674 3.1 03:22:41 10° S 03:26:30 59° E 03:30:20 10° NNE
Cosmos 2219 Rocket 2.2 03:21:38 10° NW 03:27:19 70° WSW 03:32:58 10° SSE
Cosmos 1802 Rocket 4.4 03:21:39 10° NNW 03:27:49 53° W 03:33:50 10° SSW
Cosmos 1300 2.9 03:28:24 10° NNW 03:32:16 77° ENE 03:36:07 10° SSE
SL-16 R/B 2.9 03:27:17 10° SE 03:33:25 69° ENE 03:39:36 10° NNW
Cosmos 1515 Rocket 3.8 03:32:04 10° NNW 03:36:34 74° ENE 03:40:59 10° SSE
Meteor 2-2 Rocket 4.3 03:31:21 10° NNW 03:37:04 82° WSW 03:42:42 10° S
CZ-3A R/B 1.1 03:36:26 12° SW 03:37:28 21° S 03:39:40 10° ESE
SL-16 R/B 4.2 03:35:04 10° WNW 03:37:30 13° W 03:39:56 10° WSW
SL-16 R/B 2.9 03:31:55 10° NW 03:37:36 61° NE 03:43:15 10° ESE
NOSS 0 Rocket 4.0 03:31:45 10° NW 03:37:56 70° SW 03:44:06 10° SSE
Cosmos 2237 Rocket 2.2 03:34:10 10° NW 03:39:52 84° SW 03:45:31 10° SE
ISS -2.3 03:39:26 10° WSW 03:41:48 19° SSW 03:44:10 10° SE
Cosmos 2221 3.6 03:38:12 10° NNW 03:41:57 30° W 03:45:41 10° SSW
Cosmos 2016 Rocket 4.5 03:37:30 10° NNW 03:43:36 50° W 03:49:42 10° SSW
Helios 1A Rocket 3.1 03:40:08 10° NNE 03:44:19 74° ESE 03:48:29 10° SSW
Cosmos 1726 2.3 03:45:33 10° NNW 03:49:19 63° W 03:53:03 10° S
NPP 4.2 03:51:22 10° NNE 03:56:43 56° ESE 04:02:01 10° S
ARIANE 5 R/B 4.1 03:52:35 10° NNE 03:57:08 30° E 04:01:36 10° SSE
Cosmos 2228 Rocket 3.2 03:55:12 10° NNW 03:59:37 63° W 04:04:03 10° S
Lacrosse 5 2.8 03:55:22 10° SSW 03:59:56 34° SSE 04:04:30 10° E
ATLAS 2AS CENTAUR R/B 3.4 03:53:36 10° WNW 04:01:12 45° SW 04:08:24 10° SSE
NOSS 3-4 (A) 3.8 03:55:24 10° WNW 04:02:10 86° SSW 04:09:25 10° SE
NOSS 3-4 (C) 3.8 03:55:31 10° WNW 04:02:17 87° SSW 04:09:32 10° ESE
Cosmos 1242 Rocket 3.2 03:59:10 10° NNW 04:02:27 37° W 04:05:44 10° SSW
Cosmos 2084 Rocket 4.1 03:59:40 10° SSW 04:03:22 37° SE 04:06:57 10° ENE
Cosmos 2227 Rocket 4.0 04:02:07 10° SSE 04:06:28 23° ESE 04:10:50 10° NE
